Weather in Maksim Gorkiy

Russia / Republic of Bashkortostan     54°17′58″N   56°47′29″E
temp.,
°C
wind,
m/s
gust,
m/s
humid.,
%
clouds,
%
prec.,
mm/h
press.,
hPa
HPBL,
m
28 february, sun
sun2823:00−10ese468497 0.0 1004175
02:00−10ese4691100 0.1 1002182
05:00−9ese4593100 0.4 1002171
08:00−9ese3593100 0.3 1001150
11:00−7ese3493100 0.6 1001199
14:00−3ese2393100 0.4 1001288
17:00−2nne1196100 0.9 1002171
20:00−4nw2398100 0.7 1005105
1 march, mon
mon123:00−9wsw1297100 1.2 100825
02:00−10sw239699 0.4 101074
05:00−12sw2396100 0.8 101282
08:00−13sw2297100 0.4 101362
11:00−12wsw239299 0.6 1015379
14:00−11w2390100 0.4 1015479
17:00−11wnw2393100 0.7 1016378
20:00−15wnw1298100 0.3 101725
2 march, tue
tue223:00−17wsw119899 0.4 101820
02:00−19sw1199100 0.1 101820
05:00−19ssw2398100 0.2 101854
08:00−20s3697100 0.1 1017150
11:00−16ssw599097 0.1 1015411
14:00−11ssw6118684 0.0 1011515
17:00−10ssw6148990 0.1 1009545
20:00−12ssw71494100 0.8 1008641
3 march, wed
wed323:00−12s51492100 1.6 1007610
02:00−8s41495100 1.4 1004669
05:00−6s41394100 3.3 1001730
08:00−4ssw51295100 1.0 999699
11:00−2ssw61095100 1.8 998696
14:00−1sw5897100 0.7 998625
17:00−2wsw5897100 1.5 998597
20:00−5w4897100 1.6 1000447
4 march, thu
thu423:00−8w2397100 2.7 100275
02:00−8sw2297100 0.8 100342
05:00−8wsw2497100 2.1 1005160
08:00−8wnw1297100 1.1 100651
11:00−8wnw3595100 1.9 1008445
14:00−7w4693100 0.6 1008607
17:00−7wsw4791100 0.8 1010635
20:00−9sw5119396 0.1 1011364